Temp
-27 -27 -26 -26 -26 -26 -26 -26 -26 -25 -25 -24 -24 -24 -24 -24 -25 -25 -25 -25 -25 -24 -25 -25 -25 -25 -24 -24 -24 -24 -24 -24 -23 -23 -22 -22 -22 -22 -22 -22 -21 -21 -21 -20 -20 -19 -19 -20 -19 -20 -19 -19 -18 -18
-27 -26 -26 -26 -26 -26 -26 -26 -25 -25 -26 -25 -24 -24 -24 -24 -24 -25 -24 -25 -25 -25 -25 -25 -24 -24 -24 -24 -24 -24 -24 -23 -23 -23 -22 -22 -22 -22 -22 -22 -21 -21 -21 -21 -20 -20 -20 -20 -20 -20 -20 -20 -19 -19
-26 -26 -27 -27 -27 -26 -26 -26 -26 -26 -26 -25 -25 -25 -24 -24 -24 -24 -24 -24 -25 -24 -24 -24 -24 -24 -24 -24 -24 -24 -24 -23 -22 -23 -22 -22 -21 -21 -21 -21 -21 -21 -21 -21 -21 -20 -20 -20 -20 -20 -20 -20 -20 -19
-27 -27 -27 -27 -27 -27 -26 -26 -27 -26 -26 -26 -26 -25 -25 -24 -24 -24 -24 -24 -24 -24 -24 -23 -24 -23 -24 -23 -23 -23 -24 -23 -22 -22 -22 -22 -22 -21 -21 -21 -21 -21 -21 -20 -20 -20 -21 -20 -20 -20 -20 -20 -20 -20
-27 -27 -27 -27 -27 -27 -27 -27 -27 -27 -27 -27 -27 -26 -26 -26 -25 -25 -24 -24 -24 -24 -24 -24 -24 -24 -23 -23 -23 -23 -23 -23 -23 -22 -22 -22 -22 -22 -22 -21 -21 -21 -21 -21 -20 -21 -21 -21 -20 -20 -20 -20 -20 -20
-27 -28 -28 -28 -28 -28 -28 -28 -28 -28 -28 -28 -28 -27 -27 -27 -26 -25 -25 -25 -24 -24 -24 -24 -24 -24 -24 -24 -23 -23 -23 -23 -23 -22 -22 -22 -22 -22 -22 -21 -21 -21 -21 -21 -21 -21 -21 -21 -21 -21 -21 -21 -20 -21
-28 -28 -28 -28 -28 -28 -28 -28 -28 -29 -29 -29 -29 -28 -28 -28 -27 -26 -25 -26 -25 -25 -25 -24 -24 -24 -24 -24 -24 -24 -24 -24 -23 -23 -23 -23 -23 -23 -22 -21 -22 -22 -22 -21 -21 -21 -21 -21 -21 -21 -21 -21 -21 -21
-28 -28 -29 -28 -28 -28 -29 -29 -29 -28 -29 -29 -29 -29 -28 -28 -28 -27 -27 -26 -26 -26 -26 -26 -24 -24 -24 -24 -24 -24 -24 -24 -24 -23 -23 -24 -24 -23 -22 -22 -22 -22 -23 -22 -22 -22 -22 -22 -22 -21 -21 -21 -21 -21
-28 -29 -29 -28 -28 -28 -29 -29 -29 -29 -29 -29 -29 -29 -29 -28 -28 -28 -27 -27 -27 -26 -26 -26 -26 -25 -25 -25 -25 -25 -24 -24 -24 -24 -24 -24 -24 -24 -23 -23 -23 -23 -23 -23 -24 -23 -23 -23 -23 -22 -23 -22 -22 -22
-28 -28 -28 -29 -28 -29 -29 -29 -29 -29 -29 -29 -29 -29 -29 -28 -28 -28 -28 -28 -27 -27 -26 -26 -26 -26 -25 -25 -25 -25 -25 -24 -24 -24 -24 -24 -24 -24 -24 -24 -24 -24 -24 -24 -24 -24 -24 -24 -23 -23 -23 -23 -23 -22
-28 -28 -28 -29 -29 -28 -28 -28 -28 -28 -29 -29 -29 -29 -28 -28 -28 -28 -28 -27 -27 -26 -26 -25 -25 -26 -25 -25 -25 -25 -24 -25 -25 -25 -25 -25 -24 -24 -24 -24 -25 -24 -24 -24 -24 -24 -24 -24 -24 -23 -23 -23 -23 -22
-27 -28 -28 -29 -28 -29 -29 -29 -29 -28 -28 -29 -28 -28 -28 -28 -28 -28 -28 -27 -27 -27 -26 -26 -26 -25 -25 -25 -25 -25 -26 -26 -25 -25 -25 -24 -24 -24 -24 -25 -25 -24 -24 -24 -24 -24 -24 -24 -24 -24 -24 -23 -23 -23
-27 -27 -27 -28 -28 -28 -28 -29 -29 -29 -29 -29 -28 -28 -28 -28 -28 -27 -27 -26 -26 -26 -26 -26 -26 -25 -25 -25 -25 -25 -25 -25 -25 -25 -24 -24 -24 -24 -24 -24 -24 -24 -24 -24 -24 -24 -23 -24 -24 -24 -23 -23 -23 -23
-27 -27 -27 -27 -27 -27 -28 -28 -28 -28 -28 -28 -28 -28 -27 -27 -27 -27 -26 -26 -26 -26 -26 -26 -25 -25 -25 -25 -25 -25 -25 -25 -24 -24 -24 -24 -24 -24 -24 -24 -24 -24 -24 -24 -24 -23 -23 -23 -23 -23 -23 -24 -23 -23
-27 -27 -27 -27 -27 -27 -27 -27 -27 -28 -28 -27 -27 -27 -27 -27 -26 -26 -26 -26 -26 -26 -25 -25 -25 -25 -25 -25 -25 -25 -25 -24 -24 -24 -24 -24 -24 -24 -24 -24 -24 -24 -24 -24 -24 -24 -24 -24 -24 -24 -24 -23 -23 -23
-27 -27 -27 -27 -27 -27 -27 -27 -27 -28 -27 -27 -26 -26 -26 -26 -26 -26 -25 -25 -25 -25 -25 -25 -25 -25 -25 -25 -25 -25 -25 -25 -25 -25 -24 -24 -24 -24 -24 -24 -24 -24 -24 -24 -24 -24 -24 -24 -24 -24 -24 -23 -23 -23
-26 -26 -27 -27 -27 -27 -27 -27 -26 -26 -26 -26 -26 -26 -26 -26 -26 -26 -25 -25 -25 -25 -25 -25 -25 -25 -25 -25 -25 -25 -25 -24 -24 -24 -24 -24 -24 -24 -24 -24 -24 -24 -24 -24 -24 -24 -24 -24 -24 -24 -24 -24 -24 -24
-26 -26 -26 -26 -27 -27 -27 -26 -26 -26 -26 -26 -26 -26 -26 -26 -26 -26 -26 -25 -25 -25 -25 -25 -25 -25 -25 -25 -25 -25 -24 -24 -24 -24 -24 -24 -24 -24 -24 -24 -24 -24 -25 -25 -25 -25 -25 -25 -26 -26 -26 -26 -26 -26
-25 -25 -26 -26 -26 -26 -26 -26 -26 -26 -26 -26 -25 -25 -25 -25 -25 -25 -25 -25 -25 -25 -25 -25 -25 -24 -24 -24 -24 -24 -24 -24 -24 -24 -24 -24 -24 -24 -25 -25 -25 -26 -26 -26 -26 -26 -26 -26 -26 -27 -27 -27 -27 -27
-25 -25 -25 -25 -25 -25 -26 -26 -26 -26 -26 -26 -25 -25 -25 -24 -25 -25 -25 -25 -25 -24 -24 -24 -24 -24 -24 -24 -24 -24 -24 -24 -25 -25 -25 -25 -25 -26 -26 -26 -26 -26 -26 -26 -27 -27 -27 -27 -27 -27 -27 -27 -27 -27
-25 -24 -24 -24 -24 -24 -24 -24 -24 -24 -25 -25 -24 -24 -24 -24 -24 -24 -24 -24 -24 -24 -24 -24 -24 -24 -24 -24 -24 -25 -25 -25 -25 -25 -26 -26 -26 -26 -27 -27 -27 -27 -27 -27 -27 -27 -28 -28 -28 -28 -28 -28 -29 -29
-23 -23 -23 -23 -23 -23 -24 -24 -24 -24 -24 -24 -24 -24 -24 -24 -24 -24 -24 -25 -25 -24 -25 -25 -25 -25 -25 -25 -25 -25 -25 -26 -26 -27 -27 -27 -27 -27 -27 -27 -27 -27 -27 -28 -29 -29 -30 -30 -31 -31 -31 -31 -31 -31
-23 -23 -23 -23 -23 -23 -23 -23 -23 -23 -23 -23 -24 -24 -24 -24 -24 -24 -24 -25 -25 -25 -25 -25 -25 -25 -25 -25 -25 -26 -26 -26 -27 -27 -27 -27 -27 -27 -27 -28 -29 -30 -31 -31 -32 -32 -32 -32 -32 -32 -32 -33 -33 -33
-22 -23 -23 -23 -23 -23 -23 -23 -23 -24 -24 -24 -24 -24 -24 -24 -25 -24 -24 -25 -25 -25 -25 -25 -25 -25 -26 -26 -26 -27 -27 -27 -27 -27 -28 -28 -28 -29 -30 -31 -31 -32 -32 -33 -33 -33 -33 -33 -33 -34 -34 -34 -33 -34
-23 -23 -23 -23 -23 -23 -23 -24 -24 -24 -24 -25 -25 -25 -24 -25 -25 -25 -25 -25 -25 -25 -25 -25 -26 -26 -26 -27 -27 -27 -27 -28 -28 -28 -28 -29 -30 -31 -31 -32 -32 -33 -34 -34 -34 -34 -34 -34 -34 -34 -34 -34 -34 -34
-23 -23 -23 -23 -23 -23 -24 -24 -24 -25 -24 -24 -24 -25 -25 -25 -25 -25 -25 -25 -26 -26 -26 -26 -26 -27 -27 -28 -28 -28 -29 -29 -29 -29 -30 -31 -32 -32 -32 -32 -33 -34 -35 -35 -35 -35 -35 -34 -34 -34 -34 -34 -35 -34
-23 -23 -24 -24 -24 -24 -24 -24 -24 -24 -24 -25 -25 -25 -25 -25 -25 -25 -26 -26 -26 -26 -27 -27 -27 -28 -28 -29 -29 -29 -29 -30 -30 -31 -32 -32 -33 -33 -33 -33 -34 -35 -36 -36 -35 -35 -35 -35 -35 -35 -35 -35 -35 -35
-24 -24 -24 -24 -24 -24 -24 -24 -25 -25 -25 -25 -25 -25 -26 -26 -26 -26 -26 -27 -27 -27 -28 -28 -28 -29 -29 -29 -29 -30 -30 -31 -31 -32 -33 -33 -33 -33 -33 -34 -34 -35 -35 -35 -35 -35 -36 -35 -35 -35 -35 -35 -35 -34
-24 -24 -24 -24 -25 -25 -25 -25 -25 -25 -25 -26 -26 -26 -26 -26 -27 -27 -27 -28 -28 -28 -28 -29 -29 -29 -29 -30 -30 -30 -31 -32 -32 -33 -33 -34 -34 -34 -34 -34 -34 -35 -35 -35 -35 -35 -35 -35 -35 -35 -35 -35 -34 -34
-24 -25 -25 -25 -25 -25 -25 -25 -26 -26 -26 -26 -26 -27 -27 -27 -27 -27 -28 -28 -28 -29 -29 -29 -29 -30 -30 -30 -31 -31 -32 -32 -33 -33 -34 -34 -34 -34 -34 -35 -35 -35 -35 -35 -35 -35 -35 -35 -35 -35 -35 -34 -34 -34
-24 -24 -25 -25 -25 -25 -26 -26 -26 -26 -27 -27 -27 -27 -27 -27 -28 -28 -28 -29 -29 -29 -29 -30 -30 -30 -30 -31 -31 -32 -33 -33 -34 -34 -34 -34 -34 -35 -35 -35 -35 -35 -35 -35 -35 -35 -35 -35 -35 -35 -35 -35 -35 -35
-24 -25 -25 -25 -26 -26 -26 -26 -26 -27 -27 -27 -27 -28 -28 -28 -28 -28 -29 -29 -29 -30 -30 -30 -30 -30 -31 -32 -32 -33 -34 -34 -34 -35 -35 -35 -35 -35 -35 -35 -35 -35 -35 -35 -35 -35 -35 -35 -35 -35 -35 -35 -35 -35
-25 -25 -25 -25 -26 -26 -26 -27 -27 -27 -27 -28 -28 -28 -28 -28 -29 -29 -29 -29 -30 -30 -30 -30 -31 -31 -32 -33 -33 -34 -34 -35 -35 -35 -35 -35 -36 -36 -36 -36 -36 -36 -36 -36 -36 -36 -36 -35 -35 -35 -35 -35 -36 -36
Height
5357 5356 5357 5357 5358 5360 5362 5364 5367 5371 5376 5381 5387 5393 5399 5405 5410 5415 5423 5429 5435 5440 5449 5457 5464 5472 5480 5487 5494 5500 5505 5509 5513 5518 5523 5528 5533 5537 5542 5547 5552 5555 5559 5563 5566 5569 5575 5577 5578 5583 5586 5589 5588 5589
5355 5354 5354 5354 5354 5355 5356 5358 5361 5365 5369 5373 5380 5386 5394 5399 5405 5411 5417 5425 5432 5438 5448 5454 5462 5469 5477 5483 5489 5495 5501 5505 5509 5514 5518 5523 5528 5533 5537 5541 5546 5551 5554 5558 5563 5564 5564 5566 5570 5572 5576 5579 5579 5577
5351 5349 5347 5346 5345 5345 5346 5348 5351 5355 5360 5365 5371 5378 5386 5393 5399 5405 5412 5421 5428 5435 5443 5451 5459 5465 5473 5479 5485 5492 5498 5502 5505 5510 5514 5519 5524 5529 5533 5537 5541 5546 5549 5554 5557 5559 5559 5560 5562 5564 5567 5569 5570 5570
5344 5341 5338 5336 5335 5334 5334 5335 5338 5341 5346 5352 5361 5368 5376 5385 5392 5398 5408 5417 5424 5431 5438 5447 5454 5462 5468 5474 5481 5488 5493 5497 5501 5506 5510 5515 5519 5523 5527 5531 5536 5541 5545 5547 5551 5553 5555 5556 5556 5557 5558 5561 5562 5561
5338 5333 5330 5326 5323 5322 5321 5321 5324 5327 5333 5340 5347 5357 5367 5376 5384 5391 5401 5410 5419 5429 5433 5442 5450 5457 5463 5469 5477 5483 5488 5493 5497 5501 5506 5510 5514 5518 5521 5525 5530 5534 5538 5541 5543 5545 5547 5548 5550 5549 5549 5550 5551 5552
5333 5327 5321 5315 5310 5307 5304 5305 5308 5314 5321 5328 5335 5346 5358 5367 5376 5385 5392 5402 5412 5421 5428 5435 5445 5451 5458 5465 5472 5477 5482 5487 5491 5496 5500 5504 5507 5512 5516 5521 5524 5527 5530 5532 5534 5536 5538 5540 5541 5541 5541 5541 5542 5542
5329 5322 5314 5307 5302 5297 5292 5292 5297 5305 5314 5322 5330 5341 5352 5362 5373 5382 5392 5403 5408 5415 5422 5429 5437 5446 5452 5460 5466 5472 5476 5481 5486 5490 5495 5498 5501 5503 5509 5514 5517 5519 5521 5523 5525 5526 5527 5528 5530 5530 5531 5531 5531 5531
5329 5320 5311 5306 5299 5291 5284 5282 5291 5303 5313 5321 5330 5340 5350 5361 5370 5379 5388 5395 5403 5411 5418 5422 5430 5441 5448 5454 5460 5466 5471 5476 5480 5485 5489 5492 5495 5497 5500 5505 5508 5510 5511 5512 5514 5514 5516 5517 5516 5517 5517 5518 5519 5519
5332 5323 5315 5308 5301 5295 5289 5289 5297 5307 5316 5324 5333 5341 5352 5362 5371 5379 5387 5394 5399 5407 5413 5420 5428 5437 5444 5450 5456 5460 5465 5470 5475 5479 5482 5485 5487 5489 5495 5497 5499 5500 5500 5501 5501 5501 5502 5504 5504 5503 5503 5504 5505 5507
5335 5330 5323 5316 5310 5306 5306 5308 5311 5317 5324 5331 5340 5346 5356 5366 5374 5381 5387 5392 5398 5404 5411 5419 5424 5434 5442 5447 5451 5457 5460 5465 5469 5474 5477 5478 5480 5484 5487 5490 5491 5491 5492 5492 5491 5492 5492 5493 5494 5493 5492 5492 5493 5493
5341 5337 5333 5328 5322 5321 5319 5321 5325 5330 5335 5341 5347 5355 5362 5370 5377 5383 5388 5393 5399 5405 5411 5417 5424 5431 5438 5444 5448 5452 5455 5459 5463 5468 5470 5473 5476 5479 5480 5480 5480 5481 5481 5481 5481 5481 5482 5483 5483 5483 5483 5482 5482 5482
5349 5345 5342 5338 5336 5335 5334 5334 5337 5342 5348 5353 5358 5362 5368 5374 5380 5384 5389 5396 5401 5407 5412 5419 5426 5432 5438 5442 5446 5448 5451 5454 5458 5462 5465 5468 5471 5471 5471 5471 5470 5470 5469 5469 5470 5471 5471 5472 5473 5473 5473 5473 5472 5472
5356 5354 5351 5350 5349 5349 5348 5347 5349 5353 5358 5363 5368 5371 5374 5379 5384 5388 5394 5400 5405 5409 5415 5420 5426 5432 5437 5442 5445 5449 5451 5454 5456 5458 5460 5463 5464 5464 5463 5462 5461 5460 5460 5460 5461 5461 5461 5462 5463 5463 5463 5462 5462 5462
5363 5362 5361 5360 5359 5359 5359 5360 5361 5364 5368 5372 5375 5378 5383 5386 5390 5394 5401 5405 5410 5415 5419 5424 5430 5435 5440 5443 5446 5448 5450 5452 5453 5454 5457 5458 5458 5458 5457 5456 5454 5453 5452 5450 5450 5451 5452 5452 5452 5452 5452 5452 5452 5452
5368 5369 5369 5369 5369 5369 5370 5370 5371 5374 5376 5380 5383 5386 5389 5392 5396 5401 5405 5410 5414 5419 5424 5428 5432 5436 5439 5441 5443 5445 5447 5448 5450 5451 5452 5452 5452 5451 5450 5449 5448 5447 5445 5443 5442 5441 5441 5441 5442 5443 5442 5442 5441 5440
5370 5372 5374 5375 5376 5376 5378 5379 5380 5382 5384 5387 5389 5392 5395 5399 5402 5406 5411 5415 5419 5422 5426 5429 5432 5435 5437 5439 5441 5442 5444 5445 5446 5445 5445 5444 5444 5444 5443 5442 5441 5440 5437 5436 5435 5434 5434 5434 5434 5433 5431 5430 5429 5427
5373 5374 5376 5378 5380 5381 5382 5384 5386 5387 5389 5392 5394 5397 5400 5403 5407 5411 5414 5418 5421 5425 5427 5430 5433 5435 5436 5437 5439 5439 5440 5440 5439 5439 5439 5438 5437 5436 5436 5435 5433 5431 5428 5425 5425 5425 5425 5424 5423 5422 5420 5418 5417 5415
5374 5376 5378 5380 5382 5384 5386 5387 5388 5390 5392 5395 5398 5401 5403 5406 5410 5413 5417 5420 5423 5425 5427 5429 5431 5432 5434 5435 5436 5436 5436 5436 5436 5435 5434 5433 5431 5429 5428 5426 5425 5423 5421 5419 5418 5417 5416 5414 5413 5411 5410 5408 5407 5404
5376 5378 5380 5383 5384 5386 5388 5390 5391 5392 5395 5397 5400 5403 5406 5409 5413 5416 5419 5421 5424 5426 5429 5431 5432 5433 5433 5434 5434 5434 5433 5433 5432 5431 5430 5429 5427 5425 5423 5421 5419 5417 5415 5413 5411 5409 5407 5405 5403 5401 5399 5397 5394 5392
5378 5381 5383 5386 5388 5390 5391 5393 5395 5397 5399 5402 5404 5406 5409 5412 5416 5419 5423 5425 5427 5429 5430 5431 5431 5431 5431 5431 5432 5431 5431 5431 5430 5429 5427 5426 5424 5421 5419 5416 5414 5411 5408 5405 5402 5399 5397 5394 5391 5388 5386 5383 5379 5376
5382 5385 5387 5390 5392 5394 5396 5398 5400 5403 5405 5408 5411 5413 5416 5418 5421 5423 5426 5427 5429 5430 5430 5431 5432 5432 5432 5432 5432 5431 5430 5429 5427 5425 5423 5421 5418 5415 5411 5408 5404 5401 5397 5393 5389 5385 5382 5378 5375 5371 5368 5365 5361 5358
5385 5389 5392 5395 5398 5400 5402 5404 5406 5408 5411 5413 5415 5418 5420 5422 5424 5425 5428 5430 5431 5432 5433 5433 5433 5433 5432 5431 5430 5428 5426 5424 5421 5419 5416 5412 5409 5405 5400 5395 5390 5385 5379 5375 5370 5366 5363 5360 5357 5354 5351 5348 5345 5342
5391 5395 5398 5400 5403 5405 5408 5410 5412 5413 5416 5417 5419 5421 5423 5426 5428 5430 5431 5431 5433 5434 5434 5433 5432 5431 5429 5427 5425 5423 5420 5417 5414 5411 5406 5402 5397 5390 5383 5376 5369 5364 5359 5356 5352 5349 5346 5344 5341 5338 5336 5333 5331 5328
5397 5400 5402 5405 5408 5410 5412 5414 5416 5419 5420 5423 5425 5427 5429 5431 5432 5433 5433 5433 5434 5433 5432 5431 5430 5428 5425 5423 5420 5417 5413 5410 5405 5400 5394 5387 5379 5370 5363 5357 5351 5347 5343 5339 5336 5334 5332 5330 5328 5326 5325 5323 5322 5320
5402 5405 5407 5409 5412 5414 5415 5418 5421 5424 5425 5427 5429 5431 5432 5433 5433 5433 5433 5433 5432 5431 5430 5428 5425 5423 5420 5416 5413 5409 5405 5400 5394 5387 5379 5370 5361 5354 5348 5342 5336 5331 5328 5325 5323 5322 5321 5320 5319 5318 5317 5316 5314 5313
5407 5409 5412 5414 5416 5419 5421 5423 5425 5427 5429 5431 5432 5432 5433 5433 5433 5432 5432 5431 5430 5428 5425 5423 5420 5416 5413 5409 5405 5400 5395 5389 5381 5372 5363 5355 5348 5343 5337 5330 5324 5319 5316 5315 5313 5313 5312 5312 5311 5310 5309 5308 5308 5307
5412 5413 5416 5418 5420 5423 5425 5427 5429 5430 5431 5432 5432 5433 5433 5432 5432 5431 5429 5427 5425 5423 5420 5416 5413 5410 5406 5401 5396 5390 5384 5376 5368 5359 5351 5345 5339 5334 5328 5322 5316 5313 5310 5308 5307 5306 5305 5305 5304 5304 5304 5304 5303 5302
5414 5416 5419 5421 5423 5425 5427 5429 5430 5430 5431 5432 5432 5431 5431 5430 5429 5427 5425 5423 5420 5417 5414 5410 5406 5402 5398 5393 5387 5381 5374 5366 5357 5349 5343 5337 5332 5328 5323 5317 5313 5309 5307 5304 5303 5302 5301 5301 5301 5301 5300 5300 5298 5297
5417 5419 5422 5423 5425 5427 5428 5429 5430 5430 5430 5430 5429 5428 5428 5426 5425 5423 5420 5417 5414 5411 5407 5403 5399 5395 5390 5384 5378 5371 5363 5355 5348 5342 5336 5330 5326 5322 5318 5314 5311 5308 5305 5303 5301 5300 5299 5298 5298 5297 5295 5294 5292 5290
5417 5420 5422 5424 5425 5426 5428 5428 5428 5428 5428 5427 5427 5425 5424 5422 5420 5418 5415 5411 5408 5404 5400 5396 5391 5386 5381 5374 5368 5360 5353 5346 5340 5334 5329 5324 5320 5316 5313 5310 5307 5304 5302 5300 5298 5297 5295 5294 5293 5292 5290 5288 5285 5282
5417 5420 5421 5423 5424 5425 5426 5426 5426 5426 5425 5424 5423 5421 5420 5417 5415 5411 5408 5405 5401 5397 5392 5388 5383 5377 5371 5364 5357 5349 5342 5336 5330 5325 5320 5316 5312 5309 5306 5304 5301 5299 5297 5295 5294 5292 5290 5289 5287 5285 5282 5280 5276 5273
5416 5418 5419 5421 5422 5423 5423 5423 5422 5422 5421 5420 5418 5416 5414 5412 5409 5405 5401 5398 5393 5389 5385 5379 5374 5367 5360 5353 5345 5338 5332 5326 5321 5317 5313 5309 5305 5302 5300 5297 5294 5292 5290 5288 5287 5285 5283 5281 5279 5277 5274 5271 5268 5264
5412 5414 5415 5416 5417 5419 5419 5419 5418 5416 5416 5414 5412 5410 5408 5405 5402 5398 5394 5390 5386 5381 5376 5370 5364 5357 5350 5342 5335 5328 5322 5317 5313 5310 5306 5302 5298 5295 5293 5290 5288 5285 5283 5281 5279 5277 5275 5273 5271 5268 5265 5262 5258 5255
Wind_Speed
9 7 7 8 9 9 10 12 16 24 28 29 30 31 31 32 32 29 22 19 15 17 19 23 27 25 23 23 24 22 21 20 21 23 22 23 23 23 24 22 23 23 22 25 31 38 44 45 50 50 49 52 52 51
10 12 15 16 18 19 20 21 22 22 22 26 34 34 34 34 35 34 27 23 23 21 20 22 23 22 22 21 22 22 21 21 20 23 24 24 25 25 25 25 23 22 22 20 17 17 23 23 24 28 26 27 35 45
17 21 23 24 27 27 26 27 29 31 30 29 30 34 39 38 38 38 33 29 29 26 22 21 21 22 25 22 22 21 18 21 24 23 24 25 26 27 29 28 26 24 23 22 19 19 22 22 22 24 25 25 27 31
21 26 26 24 24 26 26 26 29 32 35 37 38 36 37 42 41 45 40 35 33 31 28 24 24 24 25 23 20 21 20 22 23 22 23 23 25 26 28 30 30 29 28 27 26 26 25 25 26 27 28 26 28 33
23 19 21 23 25 27 28 28 29 29 32 33 38 43 39 39 43 42 43 42 40 38 35 30 29 28 29 26 23 24 23 23 23 25 25 25 26 28 29 30 29 30 30 32 33 32 32 30 30 32 33 33 33 34
20 22 22 22 24 27 28 29 30 27 26 28 34 44 43 39 39 43 40 41 42 41 41 37 33 32 30 28 25 24 25 26 27 27 28 29 30 31 32 32 32 34 35 36 36 36 37 37 37 37 38 38 33 34
18 21 22 17 12 13 15 17 18 27 18 20 29 35 38 38 36 36 43 35 38 41 41 40 37 35 33 33 31 27 29 30 29 29 29 29 31 33 34 33 32 34 35 36 37 38 41 42 43 43 43 40 41 44
19 26 19 16 13 14 5 12 23 26 26 26 29 30 34 30 28 28 34 33 33 35 37 41 40 35 31 26 24 27 30 30 30 29 27 30 28 33 38 37 36 36 38 40 40 43 44 45 47 48 49 47 48 44
26 25 22 21 22 19 22 25 30 30 30 32 29 30 35 32 26 25 28 28 25 29 33 36 34 31 28 27 25 29 31 31 30 28 25 27 30 33 33 33 34 34 34 35 38 40 42 44 46 46 44 44 45 40
20 27 27 30 26 29 26 28 30 33 36 35 29 30 37 34 29 27 20 23 24 25 27 28 30 27 26 25 25 25 28 30 29 30 32 31 25 28 28 32 35 34 34 37 38 44 40 35 37 37 39 36 39 44
18 24 26 31 28 27 27 33 32 34 33 35 29 32 38 34 29 23 23 25 23 23 25 25 24 20 14 14 14 20 23 24 29 29 29 27 25 27 27 30 34 38 40 39 37 39 41 36 32 26 29 31 33 34
20 28 30 33 32 30 31 29 26 28 25 27 34 32 24 23 26 26 22 22 25 25 25 25 25 22 19 15 13 10 15 18 25 24 25 19 17 23 26 30 32 33 33 35 37 34 37 38 32 30 32 30 27 30
20 23 29 29 23 20 24 28 33 29 34 26 26 27 30 28 27 25 23 32 29 27 30 26 18 23 21 16 11 15 13 15 15 16 19 19 21 26 27 27 27 28 31 35 36 36 36 36 35 33 33 26 28 29
19 19 21 25 29 29 26 28 29 32 31 30 20 20 22 21 23 26 32 24 23 22 20 24 21 16 18 13 11 9 8 10 15 17 15 18 15 17 18 16 17 21 27 29 29 31 34 33 36 36 33 29 32 32
10 14 15 17 23 25 24 23 24 28 25 23 25 23 23 29 30 27 27 22 19 19 18 18 13 10 9 9 9 10 10 13 14 14 17 22 24 23 18 20 21 22 20 22 27 33 35 35 31 30 31 33 35 36
14 13 13 13 15 16 17 19 20 19 13 17 19 17 19 22 24 23 24 21 18 15 14 13 12 11 11 13 12 14 16 16 16 18 20 23 28 29 29 30 29 34 35 30 25 26 28 31 33 36 36 37 37 39
12 12 13 14 12 11 12 12 11 11 11 12 15 17 21 19 19 21 20 19 18 15 13 13 12 11 10 13 14 16 15 15 16 18 20 21 23 28 33 36 38 38 32 23 26 30 32 34 36 39 38 37 37 38
13 13 13 15 15 14 10 6 9 11 11 14 14 14 14 14 15 15 16 16 12 10 8 8 9 8 6 5 7 8 9 10 11 13 15 18 20 22 25 24 22 20 19 17 17 20 22 24 26 28 31 33 34 35
12 11 11 11 11 11 10 12 13 13 13 12 12 12 13 13 14 14 12 9 11 11 10 7 4 1 2 4 6 8 11 14 15 16 16 17 18 16 15 16 17 19 20 21 23 25 27 29 31 33 35 37 39 41
15 15 15 13 13 13 15 16 16 16 14 13 16 17 18 18 18 18 15 12 9 5 2 1 5 3 5 4 3 1 1 4 6 8 10 13 15 18 21 24 26 28 30 32 34 35 37 39 40 42 44 46 48 50
18 20 19 18 18 19 19 18 18 18 19 18 17 17 18 17 15 12 9 5 3 3 6 8 7 5 3 0 3 6 9 12 14 16 19 21 24 27 30 32 36 38 41 43 45 47 49 50 51 52 53 54 55 56
24 24 22 23 23 23 21 19 17 17 16 17 18 17 15 13 10 9 10 13 10 9 6 2 3 6 9 11 14 16 17 19 21 23 25 28 32 36 40 44 48 50 51 52 52 52 52 52 52 52 52 52 51 51
29 27 25 23 20 17 17 18 16 14 13 17 17 18 19 19 18 15 13 12 6 0 4 8 12 14 16 18 19 21 23 25 27 31 35 40 45 49 52 51 50 49 48 48 48 47 47 46 45 43 41 38 35 32
28 26 24 22 21 19 18 17 18 18 20 19 17 15 14 10 8 4 5 4 5 9 12 14 17 18 20 21 23 25 28 32 37 41 46 51 52 49 48 46 45 45 44 43 41 39 37 34 31 28 26 24 22 22
26 25 24 23 23 23 24 24 21 19 17 14 10 8 6 5 4 5 7 9 11 13 15 17 19 21 23 26 28 32 35 39 43 50 53 49 45 42 39 39 40 39 39 37 34 31 27 25 24 23 23 24 22 19
25 24 24 22 20 19 16 16 15 12 9 8 6 5 4 6 8 10 11 12 14 17 19 22 24 25 26 29 32 35 39 45 52 53 48 42 36 34 36 36 34 30 28 26 24 23 22 21 21 20 16 13 11 12
21 21 20 18 15 13 11 10 9 7 5 4 4 5 8 10 12 14 16 18 20 21 23 25 26 27 30 33 36 40 45 51 53 48 41 36 32 33 33 31 26 22 19 18 17 17 15 14 11 10 10 11 13 16
16 14 14 12 11 9 8 6 4 2 2 4 7 9 12 14 17 19 21 23 24 26 27 28 28 31 34 37 40 44 47 52 49 42 36 33 30 30 28 26 21 18 16 14 12 10 9 10 10 11 13 15 17 19
13 12 10 9 8 6 4 2 2 4 6 9 12 15 18 20 22 25 27 27 28 29 30 30 32 35 38 41 44 46 49 49 43 38 34 31 28 27 26 23 19 15 13 11 10 10 9 10 12 14 16 19 21 24
14 12 11 8 7 6 5 6 7 9 11 14 17 19 22 25 27 29 31 32 32 32 32 33 35 39 41 44 46 49 49 45 39 36 33 30 26 24 23 21 19 18 16 14 13 12 13 15 17 19 21 23 26 29
15 14 14 14 11 10 10 11 13 14 16 18 20 24 26 29 32 33 35 34 34 35 35 36 39 42 44 47 49 50 47 43 39 35 33 30 26 23 22 21 20 18 17 17 17 18 19 20 22 23 25 28 30 32
17 18 18 18 16 15 16 15 16 18 22 23 26 28 31 34 35 37 37 36 37 36 37 40 42 45 48 50 51 49 45 40 37 33 30 28 25 23 22 21 21 21 21 21 21 22 23 24 26 27 29 31 32 33
21 23 24 25 23 19 18 19 21 23 25 27 29 32 36 37 39 39 38 38 37 38 41 43 45 48 51 51 49 45 40 35 31 29 28 26 24 23 22 22 21 22 22 22 23 24 25 26 28 29 30 31 31 31
Wind_Direction
297 281 270 265 263 256 253 251 244 234 227 224 218 217 217 219 221 226 226 217 205 173 174 180 185 184 179 183 190 192 197 207 211 213 216 218 215 217 218 219 217 225 229 233 242 248 254 255 256 256 258 257 253 252
287 279 272 270 271 266 263 256 249 245 244 231 220 219 216 216 217 222 223 214 217 214 189 190 185 183 181 188 196 198 202 213 215 213 214 219 220 217 218 222 221 224 227 231 232 235 242 252 252 256 261 262 264 267
290 285 283 278 272 266 261 256 252 247 243 239 237 221 213 214 215 218 223 220 220 222 216 206 194 193 187 196 202 207 208 219 220 215 217 221 224 223 224 227 231 230 226 223 229 234 245 256 265 270 278 282 283 279
295 291 285 281 275 271 269 264 259 253 244 238 231 226 219 209 211 216 217 220 221 224 224 211 204 191 203 206 205 206 214 219 225 223 225 226 227 229 231 233 234 237 239 239 241 243 247 254 262 271 282 285 287 288
302 305 296 288 284 277 270 261 257 246 229 232 226 218 216 214 208 214 214 216 217 222 226 221 216 213 210 214 217 213 220 228 234 235 236 236 237 236 236 237 239 242 244 246 248 251 250 255 263 269 277 286 292 290
330 327 317 307 295 284 270 255 244 225 222 221 219 208 207 208 210 209 210 211 215 216 222 224 220 220 222 226 228 231 232 232 239 243 243 244 245 244 244 244 247 250 252 253 256 254 254 258 265 267 271 280 284 289
350 346 336 332 324 316 274 240 211 202 196 192 190 194 198 202 206 208 212 214 215 216 220 225 224 223 226 228 232 228 227 229 233 238 243 247 252 256 256 254 254 256 257 257 256 259 262 265 268 268 270 269 273 286
5 4 4 28 17 358 341 195 176 174 174 177 174 178 187 192 192 196 203 208 211 212 216 226 228 226 227 229 226 225 221 225 233 239 239 246 250 256 260 262 263 264 264 264 265 264 266 267 268 269 270 269 275 275
23 23 29 40 33 66 83 118 137 145 152 147 148 155 159 171 175 173 182 187 193 207 213 223 229 230 228 225 224 227 227 231 235 240 231 242 248 254 262 262 265 265 264 262 257 259 260 258 259 261 262 267 265 256
45 40 46 46 76 80 95 108 115 128 136 135 140 148 157 159 169 163 165 178 181 187 201 212 226 228 230 228 231 236 239 239 241 235 225 238 242 240 250 261 256 257 255 259 262 250 258 269 264 266 261 269 258 254
51 49 56 56 68 95 93 109 117 119 124 141 149 152 156 159 159 172 182 175 175 179 184 194 199 186 199 207 219 224 231 232 227 227 236 237 246 255 257 257 257 261 263 259 257 260 261 259 264 268 283 276 264 262
65 72 72 81 76 87 97 103 115 128 130 136 132 134 136 150 159 178 179 162 150 147 155 151 158 156 171 190 205 196 209 217 227 231 237 247 252 260 265 265 263 261 260 258 254 258 261 262 269 270 275 273 268 258
77 79 74 68 87 89 104 103 118 117 126 123 143 148 145 154 166 169 151 147 133 140 147 146 165 168 173 162 173 194 209 215 225 238 245 254 266 266 264 264 261 261 259 258 257 259 255 259 261 272 280 268 271 264
91 88 90 94 94 94 109 111 112 118 123 131 129 150 150 149 162 159 145 143 148 146 142 152 149 158 168 200 211 220 229 237 253 257 252 230 254 252 267 273 271 270 266 259 255 256 258 260 262 269 270 266 271 269
103 96 105 106 112 105 113 116 119 127 123 128 133 133 124 126 130 128 142 144 138 143 147 163 174 183 201 218 227 233 246 263 263 261 256 250 258 263 264 285 295 298 287 283 272 258 256 256 257 266 269 270 271 273
135 132 131 127 121 112 113 135 140 143 124 119 124 130 129 142 152 148 145 147 151 157 171 178 185 195 207 221 233 247 254 257 257 257 254 253 251 257 263 275 286 293 293 286 268 266 259 261 262 269 268 269 269 271
167 157 148 141 142 141 134 133 144 144 140 128 132 132 135 132 137 151 166 177 180 182 181 186 197 210 225 245 251 256 265 265 261 259 262 265 269 268 267 273 279 284 287 285 266 257 259 264 266 271 275 272 272 271
171 164 157 151 151 151 151 138 149 156 150 141 144 154 152 150 154 156 158 160 166 175 184 189 188 176 176 207 225 236 249 251 258 265 271 276 284 281 276 276 274 272 279 281 277 269 265 265 267 267 268 269 270 270
156 153 145 141 141 144 143 137 136 134 143 146 151 154 157 155 153 150 150 149 144 149 155 156 150 189 220 239 268 267 272 277 279 281 283 286 283 281 278 278 279 278 277 276 276 275 274 274 275 276 278 279 279 279
151 143 139 142 141 134 133 134 132 130 124 125 122 125 128 130 134 136 134 138 139 124 125 246 275 280 255 228 194 169 223 254 264 273 279 281 281 282 283 283 283 283 283 282 281 280 281 281 282 282 282 282 282 281
148 141 135 134 131 131 128 127 126 124 126 126 124 126 130 132 129 130 134 140 138 161 139 133 120 117 120 69 312 302 298 297 294 293 292 293 293 293 293 294 292 291 289 287 286 284 283 282 281 281 281 281 281 282
141 137 135 135 133 128 126 129 135 134 132 134 136 135 136 145 153 153 143 130 126 126 116 103 328 326 325 318 314 311 309 307 306 303 301 300 302 302 301 301 299 293 287 283 281 280 280 281 282 284 285 286 287 288
136 139 142 143 144 141 138 140 134 129 131 139 143 139 134 132 131 131 136 124 122 13 324 324 320 320 319 316 313 312 309 308 308 308 310 310 310 310 306 299 293 289 287 286 286 286 286 287 288 289 290 289 290 290
138 137 137 141 143 145 140 136 127 126 121 118 116 123 120 117 124 120 75 36 347 329 325 324 323 320 316 314 314 313 315 318 320 320 319 319 315 307 301 298 296 293 291 290 290 290 291 291 290 288 288 287 291 293
145 142 143 141 139 135 126 126 127 126 125 124 123 120 111 88 57 29 2 347 338 332 326 325 324 323 321 320 318 320 322 324 326 326 325 319 312 309 307 305 301 296 292 289 289 288 287 287 286 288 287 287 285 284
131 129 127 124 120 117 120 120 121 127 131 125 115 93 54 23 4 355 347 340 340 338 335 330 326 322 321 322 326 329 330 330 331 329 324 320 317 315 316 315 312 306 299 294 289 286 285 286 289 290 285 275 271 278
136 132 129 125 124 121 125 128 128 124 105 85 46 7 359 352 346 344 342 340 338 334 332 329 325 324 327 331 332 332 331 331 331 328 326 323 321 323 325 325 323 318 309 301 294 290 287 284 279 275 270 276 281 288
139 136 134 136 142 144 147 145 139 117 9 339 333 339 342 342 343 342 340 337 335 333 331 328 327 328 331 331 331 329 329 330 331 328 326 323 320 325 330 331 327 322 316 308 300 290 276 275 265 268 275 282 289 296
169 165 166 165 167 170 177 190 276 307 313 322 327 332 336 336 334 336 337 335 333 330 327 326 326 328 330 329 328 327 327 330 330 328 326 323 318 320 323 325 329 330 327 317 306 295 283 277 278 281 286 290 295 302
196 195 196 204 215 225 238 270 293 302 308 316 320 323 326 328 329 331 332 331 327 326 324 323 324 326 326 325 326 326 328 329 327 326 323 320 314 311 314 312 309 307 304 302 296 290 286 285 285 287 291 296 300 303
213 215 219 224 234 244 257 277 288 293 301 309 313 317 318 320 324 325 327 325 324 323 323 322 323 323 323 324 325 326 327 326 324 323 321 320 315 309 309 309 304 297 293 289 287 286 285 286 289 292 296 300 304 305
219 220 225 234 243 251 260 274 285 290 297 302 306 310 312 317 320 321 321 320 321 322 322 322 322 323 323 324 325 326 324 323 321 321 320 319 315 310 308 309 306 299 293 290 290 289 289 291 293 295 298 301 303 305
220 222 228 235 242 252 266 274 279 285 291 298 302 304 309 313 315 316 316 319 320 321 321 321 322 323 324 324 324 324 323 323 323 323 323 321 316 311 307 306 306 304 300 295 293 292 292 293 295 297 299 302 305 307